Location: Quispamsis
(45.4447°N, 65.9414°W)
Time: 13:20:36
(UTC-04:00)

Daily predictions for brighter satellites

Satellite Brightness Start Highest point End
(mag) Time Altitude Azimuth Time Altitude Azimuth Time Altitude Azimuth
Okean 2 Rocket 3.1 18:24:31 10° S 18:28:58 90° SW 18:33:26 10° N
Cosmos 1709 Rocket 4.4 18:23:53 10° SSE 18:29:34 39° E 18:35:12 10° NNE
Cosmos 1340 3.4 18:26:56 10° N 18:30:22 31° ENE 18:33:46 10° SE
Meteor 1-18 Rocket 4.3 18:27:54 10° N 18:33:31 89° E 18:39:08 10° S
USA 215 4.0 18:27:37 10° NE 18:33:50 48° NNW 18:40:02 10° W
FREGAT/IRIS 3.5 18:31:28 10° SE 18:34:12 29° ENE 18:36:57 10° N
Cosmos 2322 Rocket 2.6 18:31:05 10° NNW 18:36:41 69° WSW 18:42:15 10° SSE
Cosmos 1484 Rocket 4.0 18:37:05 10° S 18:40:56 48° W 18:44:45 10° NNW
Cosmos 1954 Rocket 4.4 18:36:10 10° S 18:40:58 40° ESE 18:45:51 10° NE
CZ-4 R/B 4.4 18:38:33 10° SW 18:41:50 22° W 18:45:10 10° NW
Meteor 1-20 Rocket 4.3 18:36:59 10° S 18:42:48 78° E 18:48:40 10° NNE
Meteor 1-28 Rocket 3.2 18:40:29 10° NNE 18:44:18 80° ESE 18:48:07 10° S
TSX-5 3.8 18:43:08 10° S 18:46:05 37° ESE 18:49:08 10° NE
Cosmos 1745 Rocket 4.3 18:41:22 10° SSW 18:47:40 75° W 18:53:57 10° N
FENGYUN 3A 4.1 18:42:48 10° SE 18:47:50 41° ENE 18:52:54 10° N
Cosmos 2151 Rocket 3.6 18:43:38 10° S 18:48:06 69° E 18:52:37 10° NNE
Okean 1 Rocket 4.0 18:45:36 10° SSE 18:49:23 27° E 18:53:11 10° NNE
Genesis I 4.0 18:45:50 10° NNW 18:49:28 33° NE 18:53:02 10° ESE
SJ-6B 3.0 18:45:43 10° SSE 18:49:36 52° ENE 18:53:26 10° N
HJ-1C 4.2 18:47:11 10° SE 18:50:10 30° ENE 18:53:10 10° N
Tiangong 2 3.5 18:48:09 10° WSW 18:50:21 18° SSW 18:52:33 10° SSE
Gbstr 26 Del rocket 4.0 18:48:46 10° S 18:51:53 23° SE 18:54:17 13° E
Cosmos 2322 3.8 18:47:10 10° NNW 18:52:51 60° ENE 18:58:28 10° SE
Cosmos 1238 Rocket 2.4 18:54:27 10° N 18:57:21 43° ENE 19:00:11 10° SSE
NOAA 12 4.2 18:53:59 10° SSE 18:59:18 89° WSW 19:04:41 10° NNW
Meteor 1-13 Rocket 4.2 18:56:03 10° N 19:01:36 67° ENE 19:07:11 10° SSE
GEOS 3 Rocket 4.3 18:59:23 10° NE 19:04:08 34° ESE 19:08:55 10° S
Cosmos 1025 Rocket 3.9 19:03:10 10° NNE 19:07:01 29° ENE 19:10:51 10° SE
COSMOS 2428 3.1 19:02:36 10° NNW 19:08:03 44° ENE 19:13:27 10° SE
Cosmos 2237 4.4 19:02:44 10° NNW 19:08:23 54° ENE 19:13:58 10° SE
SL-19 R/B 4.5 19:03:07 10° SE 19:08:39 56° ENE 19:14:37 10° N
Cosmos 405 Rocket 4.4 19:07:02 10° NNE 19:09:42 17° ENE 19:09:44 17° ENE
METEOR-M 4.4 19:04:40 10° S 19:10:00 75° WSW 19:15:22 10° NNW
Meteor 2-4 Rocket 3.8 19:05:34 10° N 19:11:00 50° ENE 19:16:15 10° SSE
CZ-2D R/B 4.1 19:08:11 12° SE 19:11:14 29° ENE 19:14:34 10° N
Cosmos 2237 Rocket 3.6 19:07:43 10° N 19:11:54 20° NE 19:14:01 17° ENE
Okean 1-7 Rocket 3.9 19:08:25 10° N 19:12:46 44° ENE 19:17:03 10° SSE
Cosmos 1536 3.2 19:12:38 10° SSE 19:16:22 39° E 19:20:06 10° NNE
H-2A R/B 3.0 19:13:02 10° SE 19:16:34 43° ENE 19:20:09 10° N
Cosmos 1023 Rocket 4.4 19:12:27 10° S 19:17:29 64° ESE 19:22:34 10° NNE
Cosmos 1536 Rocket 4.4 19:17:08 10° NNW 19:21:31 54° W 19:25:52 10° S
Cosmos 1633 2.6 19:18:31 10° S 19:22:12 87° W 19:25:55 10° N
Cosmos 1741 Rocket 4.2 19:19:23 10° S 19:24:20 45° ESE 19:29:18 10° NNE
Cosmos 1818 4.0 19:21:57 10° SW 19:27:21 65° NW 19:32:48 10° NNE
Cosmos 2360 Rocket 2.5 19:21:55 10° NNW 19:27:34 69° WSW 19:33:10 10° SSE
Cosmos 2219 Rocket 2.7 19:24:08 10° NNW 19:29:19 37° NE 19:31:49 25° ESE
Cosmos 2219 3.5 19:25:39 10° S 19:31:03 44° ESE 19:36:28 10° NE
Cosmos 1570 Rocket 3.9 19:32:20 10° NNW 19:37:36 84° ENE 19:42:50 10° SSE
Meteor 1-11 Rocket 3.8 19:34:22 10° S 19:40:11 86° W 19:46:10 10° N
SL-16 R/B 3.8 19:41:29 10° N 19:45:11 17° NE 19:45:26 17° NE
Cosmos 1140 Rocket 3.7 19:42:54 10° SSW 19:48:01 71° WNW 19:53:13 10° NNE
Resurs 01 Rocket 1.9 19:45:36 10° S 19:49:58 68° WSW 19:54:23 10° NNW
Cosmos 1300 Rocket 4.5 19:47:57 10° SSW 19:52:14 50° WNW 19:56:35 10° N
Cosmos 2327 Rocket 4.4 19:49:04 10° S 19:55:14 72° E 20:01:34 10° NNE
Spot 1 3.8 19:53:24 30° SSE 19:55:19 80° ENE 19:59:30 10° NNW
Cosmos 614 Rocket 4.0 19:50:47 10° SSW 19:55:52 79° WNW 20:00:58 10° NNE
ALOS 3.4 19:53:36 10° S 19:58:04 45° W 20:02:34 10° NNW
Cosmos 468 Rocket 4.2 19:53:17 10° NNW 19:58:23 50° ENE 19:59:15 45° E
Abrixas rocket 4.3 19:55:32 10° SSW 19:56:51 19° S 19:56:51 19° S
Spot 2 Rocket 4.0 19:57:23 10° S 20:02:21 58° WSW 20:07:23 10° NNW
Cosmos 2333 Rocket 2.3 19:57:20 10° NNW 20:02:59 54° ENE 20:04:11 45° E
USA 229 DEB 3.7 19:55:53 10° NW 20:03:03 85° NE 20:07:02 30° SE
USA 229 3.7 19:55:59 10° NW 20:03:09 84° NE 20:07:06 30° SE
Cosmos 2208 Rocket 4.4 19:59:06 10° NNW 20:04:30 65° WSW 20:09:50 10° S
Helios 1A 2.9 20:04:17 35° S 20:06:00 83° WSW 20:10:11 10° NNW
Resurs 1-3 4.4 20:03:38 10° S 20:07:54 52° W 20:12:13 10° NNW
Cosmos 1980 3.8 20:05:24 10° NNW 20:10:54 50° ENE 20:11:16 49° ENE
Cosmos 2074 Rocket 4.1 20:08:27 10° SSW 20:14:42 78° W 20:21:02 10° N
Cosmos 1850 Rocket 4.4 20:09:55 10° SSW 20:15:11 66° WNW 20:20:32 10° NNE
NOSS 3-1 (A) 4.3 20:08:27 10° NNW 20:15:32 47° NE 20:17:30 40° ENE
Cosmos 1814 Rocket 4.1 20:10:50 10° NNW 20:15:33 52° NE 20:15:33 52° NE
USA 215 4.4 20:12:29 20° NE 20:15:59 32° N 20:21:38 10° WNW
Helios 1B rocket 3.3 20:12:34 10° NNE 20:18:13 40° SSW 20:20:54 10° SSW
Cosmos 2184 Rocket 4.1 20:11:22 10° SSW 20:17:40 77° W 20:23:57 10° N
Envisat 2.8 20:18:30 67° E 20:18:39 68° ENE 20:23:42 10° N
ATLAS 2AS CENTAUR R/B 4.2 20:13:51 10° NNW 20:20:32 27° NNE 20:22:51 23° NE
Okean 2 3.7 20:17:22 10° NNW 20:21:31 67° W 20:22:00 60° SW
USA 186 4.3 20:24:36 16° NNW 20:24:36 16° NNW 20:25:19 10° NNW
ERS-1 Rocket 3.8 20:25:24 36° NNE 20:25:24 36° NNE 20:28:45 10° N
Cosmos 1892 Rocket 3.8 20:25:22 10° NNW 20:29:15 66° NW 20:29:15 66° NW
Nadezhda 3 Rocket 3.8 20:28:56 10° N 20:35:08 87° E 20:36:37 55° SSE
NOSS 3-1 (C) 4.0 20:27:56 10° NW 20:35:22 69° NE 20:36:56 57° ESE
Gbstr 26 Del rocket 4.2 20:34:40 10° WSW 20:36:53 33° W 20:36:53 33° W
H-2A R/B 4.4 20:43:45 13° NNE 20:43:45 13° NNE 20:44:34 10° NNE
Cosmos 2341 Rocket 4.3 20:42:07 51° NE 20:42:07 51° NE 20:46:58 10° NNE
GEOS 3 Rocket 4.4 20:39:42 27° NNE 20:42:18 50° NW 20:47:22 10° WSW
Cosmos 405 Rocket 4.3 20:42:08 10° NNW 20:45:00 36° NW 20:45:00 36° NW
Cosmos 2154 Rocket 3.9 20:40:15 10° S 20:46:37 85° W 20:53:01 10° N
COSMOS 2428 4.3 20:47:11 10° NW 20:52:08 31° WSW 20:55:38 17° SSW
Cosmos 2237 Rocket 2.4 20:50:57 10° NNW 20:55:53 67° NW 20:55:53 67° NW
NOSS 0 Rocket 4.4 21:02:09 10° NW 21:08:06 53° WSW 21:08:24 52° WSW
Cosmos 2219 Rocket 3.3 21:08:09 10° NW 21:13:15 37° WSW 21:13:35 37° WSW
SL-16 R/B 3.7 21:24:30 10° NNW 21:27:20 31° NNW 21:27:20 31° NNW
Cosmos 2333 Rocket 4.1 21:42:15 10° NW 21:46:14 25° W 21:46:14 25° W
ATLAS 2AS CENTAUR R/B 4.0 22:05:08 10° NW 22:10:18 41° NNW 22:10:18 41° NNW
